Tracking 35274 objects as of 11-Sep-2026
HD Live streaming from Space Station
objects crossing your sky now

CAPELLA-14 (ACADIA)

Track CAPELLA-14 (ACADIA) now!
10-day predictions


NORAD ID: 59444
Int'l Code: 2024-066C
Launch date: April 7, 2024
Source: United States (US)
Launch site: AIR FORCE EASTERN TEST RANGE (AFETR)
Your satellite tracking list
Your tracking list is empty




NASA's NSSDC Master Catalog

Two Line Element Set (TLE):
1 59444U 24066C   26254.13587619  .00007810  00000-0  54594-3 0  9999
2 59444  45.6031 165.0246 0001020 215.7931 144.2885 15.05849383125457
Source of the keplerian elements: AFSPC